This is the latest recevied weather packets stored in our database for station/object K7D3. If no packets are shown the sender has not sent any weather packets the latest 10 day(s).
| Time | Temp. | Humidity | Pressure | Rain* | Wind** | Luminosity | Snow |
|---|---|---|---|---|---|---|---|
| 1777412277 | 13.33° C | 61% | - | 0 mm | 3.58 m/s, 250° | - | - |
| 1777411795 | 13.33° C | 58% | - | 0 mm | 3.58 m/s, 14° | - | - |
| 1777411317 | 12.78° C | 61% | - | 0 mm | 4.47 m/s, 4° | - | - |
| 1777410838 | 12.78° C | 61% | - | 0 mm | 2.68 m/s, 291° | - | - |
| 1777410356 | 12.78° C | 61% | - | 0 mm | 4.02 m/s, 329° | - | - |
| 1777409877 | 12.78° C | 61% | - | 0 mm | 4.92 m/s, 34° | - | - |
| 1777409398 | 12.78° C | 64% | - | 0 mm | 2.68 m/s, 354° | - | - |
| 1777408916 | 12.22° C | 62% | - | 0 mm | 4.47 m/s, 346° | - | - |
| 1777408438 | 12.22° C | 64% | - | 0 mm | 2.68 m/s, 346° | - | - |
| 1777407959 | 11.67° C | 64% | - | 0 mm | 4.92 m/s, 335° | - | - |
| 1777407477 | 12.22° C | 64% | - | 0 mm | 2.24 m/s, 305° | - | - |
| 1777406998 | 11.67° C | 66% | - | 0 mm | 2.68 m/s, 271° | - | - |
| 1777406519 | 11.67° C | 65% | - | 0 mm | 4.47 m/s, 295° | - | - |
| 1777406037 | 11.11° C | 66% | - | 0 mm | 4.92 m/s, 329° | - | - |
| 1777405558 | 11.11° C | 66% | - | 0 mm | 5.36 m/s, 295° | - | - |
| 1777405079 | 11.11° C | 67% | - | 0 mm | 4.92 m/s, 319° | - | - |
| 1777404597 | 10.56° C | 68% | - | 0 mm | 4.02 m/s, 295° | - | - |
| 1777404119 | 11.11° C | 68% | - | 0 mm | 4.47 m/s, 301° | - | - |
| 1777403640 | 10.56° C | 68% | - | 0 mm | 4.92 m/s, 332° | - | - |
| 1777403158 | 10.56° C | 69% | - | 0 mm | 4.92 m/s, 287° | - | - |
| 1777402679 | 10.56° C | 69% | - | 0 mm | 4.02 m/s, 335° | - | - |
| 1777402201 | 11.11° C | 70% | - | 0 mm | 4.02 m/s, 288° | - | - |
| 1777401718 | 10.56° C | 69% | - | 0 mm | 2.68 m/s, 329° | - | - |
| 1777401240 | 11.11° C | 68% | - | 0 mm | 4.02 m/s, 305° | - | - |
| 1777400761 | 11.11° C | 69% | - | 0 mm | 4.92 m/s, 304° | - | - |
* Rain latest hour (hover to see other rain measurements)
** Current wind speed in m/s (hover to see current wind gust speed)